EW8784 Weather Reports


time (UTC)temp
C
wind
direction
speed
KPH
gust
KPH
rain 1hr
cm
rain 24hr
cm
rain mn
cm
humidity
%
barometer
mb
20260905103005 23 45 4.8 12.9 0.00 0.05 0.05 100 1016.1
20260905101507 23 167 4.8 16.1 0.00 0.05 0.05 100 1015.8
20260905100008 23 101 8.0 14.5 0.00 0.05 0.05 100 1015.6
20260905094504 23 121 3.2 4.8 0.00 0.05 0.05 100 1015.4
20260905093007 23 98 4.8 8.0 0.00 0.05 0.05 100 1015.4
20260905090002 24 104 3.2 9.7 0.00 0.03 0.03 100 1015.0
20260905084504 24 110 3.2 4.8 0.00 0.03 0.03 100 1014.9
20260905083007 24 134 4.8 9.7 0.00 0.03 0.03 100 1014.8
20260905081505 24 152 6.4 12.9 0.00 0.03 0.03 100 1014.7
20260905074512 25 135 3.2 6.4 0.00 0.03 0.03 100 1014.7
20260905073007 25 53 3.2 4.8 0.00 0.03 0.03 100 1014.4
20260905071507 25 132 3.2 6.4 0.00 0.03 0.03 100 1014.3
20260905064506 25 138 4.8 11.3 0.00 0.03 0.03 100 1014.2
20260905063006 25 87 3.2 4.8 0.00 0.03 0.03 100 1014.3
20260905061508 25 110 3.2 3.2 0.00 0.03 0.03 100 1014.2
20260905060005 25 359 4.8 12.9 0.00 0.03 0.03 100 1014.2
20260905053003 25 107 3.2 12.9 0.00 0.03 0.03 100 1014.4
20260905051505 24 136 6.4 11.3 0.00 0.03 0.03 100 1014.4
20260905050008 24 70 3.2 4.8 0.00 0.03 0.03 100 1014.5
20260905044505 23 142 6.4 12.9 0.00 0.03 0.03 100 1014.5
20260905043002 23 134 8.0 14.5 0.00 0.03 0.03 100 1014.4
20260905041503 23 359 4.8 12.9 0.00 0.03 0.03 100 1014.5
20260905040005 23 121 8.0 16.1 0.00 0.03 0.03 100 1014.7
20260905034507 23 62 6.4 12.9 0.00 0.03 0.03 100 1014.7
20260905031502 22 30 6.4 9.7 0.00 0.00 0.00 100 1014.8
20260905030006 22 55 6.4 9.7 0.00 0.00 0.00 100 1014.8
20260905024503 22 23 4.8 11.3 0.00 0.00 0.00 100 1015.0
20260905023006 22 359 8.0 14.5 0.00 0.00 0.00 100 1015.0
20260905020008 22 97 4.8 11.3 0.00 0.05 0.00 100 1015.5
20260905014502 22 125 3.2 8.0 0.00 0.05 0.00 100 1015.7
20260905013006 22 86 3.2 8.0 0.00 0.05 0.00 1 1015.8
20260905011507 22 359 6.4 12.9 0.00 0.05 0.00 100 1015.8
20260905010003 22 11 0.0 1.6 0.00 0.05 0.00 100 1015.7
20260905004504 22 20 3.2 4.8 0.00 0.05 0.00 100 1015.8
20260905003006 21 60 6.4 11.3 0.00 0.08 0.00 100 1015.6
20260905001502 21 76 0.0 1.6 0.00 0.08 0.00 100 1015.4
20260905000004 21 117 4.8 9.7 0.00 0.08 0.00 100 1015.4
20260904234505 21 53 1.6 3.2 0.00 0.08 0.00 100 1015.3
20260904233006 21 135 1.6 3.2 0.00 0.08 0.00 100 1015.3
20260904231507 21 17 0.0 0.0 0.00 0.08 0.00 100 1015.1
20260904230004 21 90 0.0 3.2 0.00 0.08 0.00 100 1014.8
20260904224506 21 14 0.0 0.0 0.00 0.08 0.00 100 1014.6
20260904223007 21 117 0.0 0.0 0.00 0.08 0.00 100 1014.7
20260904221507 21 117 0.0 0.0 0.00 0.10 0.00 100 1014.6
20260904220004 21 117 0.0 0.0 0.00 0.10 0.00 100 1014.6
20260904214505 21 0 1.6 8.0 0.00 0.10 0.00 100 1014.1
20260904213007 20 1 3.2 4.8 0.00 0.10 0.00 100 1014.3
20260904211502 20 359 0.0 11.3 0.00 0.10 0.00 100 1014.7
20260904210004 21 34 0.0 0.0 0.00 0.10 0.00 100 1014.6
20260904204505 21 0 0.0 1.6 0.00 0.10 0.00 100 1014.3
20260904203002 20 70 0.0 3.2 0.00 0.10 0.00 100 1014.3
20260904200005 21 86 1.6 3.2 0.00 0.10 0.00 100 1014.6
20260904194507 21 79 0.0 0.0 0.00 0.10 0.00 100 1013.5
20260904193004 21 138 0.0 0.0 0.00 0.10 0.00 100 1013.2
20260904191506 21 136 0.0 0.0 0.00 0.10 0.00 100 1013.1
20260904184503 21 49 0.0 0.0 0.00 0.10 0.00 100 1014.3
20260904181506 21 103 0.0 0.0 0.00 0.10 0.00 100 1014.0
20260904180007 21 139 1.6 4.8 0.00 0.10 0.00 100 1014.1
20260904174503 21 68 1.6 4.8 0.00 0.13 0.00 100 1013.9
20260904173006 21 145 3.2 11.3 0.00 0.13 0.00 100 1014.3
20260904171508 21 108 3.2 4.8 0.00 0.13 0.00 100 1013.5
20260904170003 21 125 6.4 14.5 0.00 0.13 0.00 100 1013.6
20260904164505 21 359 3.2 14.5 0.00 0.13 0.00 100 1014.5
20260904163002 21 6 6.4 9.7 0.00 0.13 0.00 100 1015.5
20260904161504 21 73 0.0 3.2 0.00 0.13 0.00 100 1014.2
20260904154507 21 73 3.2 8.0 0.00 0.15 0.00 100 1013.9
20260904153010 21 110 4.8 9.7 0.00 0.15 0.00 100 1014.0
20260904151506 21 359 3.2 11.3 0.00 0.15 0.00 100 1013.5
20260904150002 21 52 1.6 4.8 0.00 0.15 0.00 100 1014.0
20260904144505 22 167 3.2 9.7 0.00 0.15 0.15 100 1013.9
20260904143008 21 72 1.6 4.8 0.00 0.15 0.15 100 1013.6
20260904140005 22 139 4.8 11.3 0.00 0.15 0.15 100 1014.2
20260904134505 22 48 4.8 9.7 0.00 0.15 0.15 100 1014.5
20260904133006 22 167 6.4 12.9 0.00 0.15 0.15 100 1014.8
20260904131518 22 131 3.2 6.4 0.00 0.15 0.15 100 1014.9
20260904130002 22 66 9.7 14.5 0.00 0.15 0.15 100 1014.7
20260904124504 22 65 8.0 14.5 0.00 0.15 0.15 100 1014.9
20260904120006 23 110 4.8 4.8 0.00 0.15 0.15 100 1014.2
20260904114502 23 70 4.8 8.0 0.00 0.15 0.15 100 1014.5
20260904113004 23 73 4.8 8.0 0.00 0.15 0.15 100 1014.1
20260904111507 23 149 8.0 16.1 0.00 0.15 0.15 100 1013.9
20260904110007 24 69 1.6 1.6 0.00 0.15 0.15 100 1014.2